DW4326 Weather Reports


time (UTC)temp
C
wind
direction
speed
KPH
gust
KPH
rain 1hr
cm
rain 24hr
cm
rain mn
cm
humidity
%
barometer
mb
20260831144457 21 255 0.0 0.0 0.00 0.08 0.03 76 1019.8
20260831142956 20 182 0.0 0.0 0.00 0.08 0.03 79 1020.1
20260831142208 20 182 0.0 8.0 0.00 0.08 0.03 77 1020.1
20260831135954 19 297 0.0 1.6 0.00 0.08 0.03 86 1020.0
20260831134453 17 304 0.0 0.0 0.00 0.08 0.03 91 1019.9
20260831134351 16 298 0.0 0.0 0.00 0.08 0.03 98 1020.1
20260831132153 15 299 0.0 0.0 0.00 0.08 0.03 99 1019.9
20260831125950 13 299 0.0 0.0 0.00 0.08 0.03 99 1020.1
20260831124449 12 299 0.0 0.0 0.00 0.08 0.03 98 1020.2
20260831122942 11 299 0.0 0.0 0.00 0.08 0.03 98 1020.1
20260831121441 11 299 0.0 0.0 0.00 0.08 0.03 97 1020.3
20260831115940 11 298 0.0 0.0 0.00 0.08 0.03 96 1020.5
20260831114442 11 299 0.0 0.0 0.00 0.08 0.03 96 1020.6
20260831112941 11 299 0.0 0.0 0.00 0.08 0.03 95 1020.6
20260831111440 11 299 0.0 0.0 0.00 0.08 0.03 95 1020.3
20260831105942 12 299 0.0 0.0 0.00 0.08 0.03 96 1020.3
20260831104442 12 299 0.0 0.0 0.00 0.08 0.03 97 1020.2
20260831102940 12 299 0.0 0.0 0.00 0.08 0.03 97 1020.1
20260831101441 12 299 0.0 0.0 0.00 0.08 0.03 97 1020.0
20260831095940 12 299 0.0 0.0 0.00 0.08 0.03 97 1020.0
20260831095838 12 298 0.0 0.0 0.00 0.08 0.03 97 1019.9
20260831092939 12 298 0.0 0.0 0.00 0.08 0.03 97 1019.7
20260831091437 12 298 0.0 0.0 0.00 0.08 0.03 96 1019.6
20260831085936 13 298 0.0 0.0 0.00 0.08 0.03 97 1019.4
20260831084433 13 298 0.0 0.0 0.00 0.08 0.03 97 1019.4
20260831082934 13 298 0.0 0.0 0.03 0.08 0.03 97 1019.4
20260831081425 13 298 0.0 0.0 0.03 0.08 0.03 97 1019.3
20260831075924 13 298 0.0 0.0 0.03 0.08 0.03 97 1019.1
20260831074425 13 298 0.0 0.0 0.03 0.08 0.03 97 1019.1
20260831072925 13 298 0.0 0.0 0.00 0.05 0.00 97 1018.9
20260831071425 13 298 0.0 0.0 0.00 0.05 0.00 96 1018.8
20260831065925 13 298 0.0 0.0 0.00 0.05 0.00 96 1018.7
20260831064420 14 298 0.0 0.0 0.00 0.05 0.00 96 1018.5
20260831062920 14 298 0.0 0.0 0.00 0.05 0.00 97 1018.5
20260831061420 14 298 0.0 0.0 0.00 0.05 0.00 97 1018.5
20260831055920 14 298 0.0 0.0 0.00 0.05 0.00 97 1018.6
20260831054420 14 298 0.0 0.0 0.00 0.05 0.00 96 1018.5
20260831052920 14 298 0.0 0.0 0.00 0.05 0.00 96 1018.5
20260831051421 15 298 0.0 0.0 0.00 0.05 0.00 96 1018.5
20260831045921 15 298 0.0 0.0 0.00 0.05 0.00 96 1018.7
20260831044422 15 298 0.0 0.0 0.00 0.05 0.00 96 1018.5
20260831042921 15 298 0.0 0.0 0.00 0.05 0.00 96 1018.4
20260831041419 16 298 0.0 0.0 0.00 0.05 0.00 96 1018.2
20260831035918 16 298 0.0 0.0 0.00 0.05 0.05 97 1018.1
20260831035112 16 298 0.0 0.0 0.00 0.05 0.05 96 1018.0
20260831032913 16 298 0.0 0.0 0.00 0.05 0.05 96 1018.0
20260831031413 16 298 0.0 0.0 0.00 0.05 0.05 97 1018.0
20260831031328 16 298 0.0 0.0 0.00 0.05 0.05 96 1018.1
20260831024408 16 298 0.0 0.0 0.00 0.05 0.05 96 1017.9
20260831022905 16 298 0.0 0.0 0.00 0.05 0.05 96 1018.0
20260831021400 16 298 0.0 0.0 0.00 0.05 0.05 96 1017.9
20260831015900 16 298 0.0 0.0 0.00 0.05 0.05 96 1018.0
20260831014357 16 298 0.0 0.0 0.00 0.05 0.05 95 1017.9
20260831012856 16 298 0.0 0.0 0.00 0.05 0.05 95 1017.4
20260831012048 16 298 0.0 0.0 0.00 0.05 0.05 95 1016.9
20260831005852 17 298 0.0 0.0 0.00 0.05 0.05 95 1017.1
20260831004351 17 298 0.0 0.0 0.00 0.05 0.05 95 1016.7
20260831002849 17 298 0.0 0.0 0.03 0.05 0.05 94 1016.7
20260831001349 17 298 0.0 0.0 0.05 0.05 0.05 94 1016.4
20260830235849 17 298 0.0 0.0 0.05 0.05 0.05 93 1016.2
20260830234346 18 294 0.0 0.0 0.05 0.05 0.05 93 1016.0
20260830232846 18 355 0.0 0.0 0.03 0.03 0.03 91 1016.0
20260830232037 18 355 1.6 9.7 0.00 0.00 0.00 90 1015.6
20260830225844 19 337 0.0 0.0 0.00 0.00 0.00 89 1015.8
20260830225049 19 23 0.0 0.0 0.00 0.00 0.00 88 1015.6
20260830222845 19 23 0.0 0.0 0.00 0.00 0.00 88 1015.7
20260830221344 20 23 0.0 0.0 0.00 0.00 0.00 87 1015.6
20260830215846 20 23 0.0 0.0 0.00 0.00 0.00 86 1015.5
20260830214344 20 23 0.0 0.0 0.00 0.00 0.00 85 1015.5
20260830212844 21 23 0.0 0.0 0.00 0.00 0.00 83 1015.4
20260830211342 21 23 0.0 0.0 0.00 0.00 0.00 80 1015.4
20260830205840 21 23 0.0 0.0 0.00 0.00 0.00 81 1015.5
20260830204341 21 23 0.0 0.0 0.00 0.00 0.00 79 1015.6
20260830202840 22 23 0.0 0.0 0.00 0.00 0.00 78 1015.8
20260830201342 23 23 0.0 0.0 0.00 0.00 0.00 74 1015.7
20260830200541 23 11 0.0 0.0 0.00 0.00 0.00 73 1015.9
20260830194341 24 355 0.0 0.0 0.00 0.00 0.00 62 1015.8
20260830192840 24 57 0.0 0.0 0.00 0.00 0.00 62 1016.2
20260830191340 24 119 0.0 0.0 0.00 0.00 0.00 59 1016.3
20260830185841 23 260 0.0 0.0 0.00 0.00 0.00 65 1016.4
20260830184338 22 5 0.0 0.0 0.00 0.00 0.00 76 1016.7
20260830182839 21 236 0.0 0.0 0.00 0.00 0.00 83 1016.9
20260830181340 21 236 0.0 0.0 0.00 0.00 0.00 83 1017.1
20260830175838 20 236 0.0 0.0 0.00 0.00 0.00 85 1017.2
20260830174339 20 236 0.0 0.0 0.00 0.00 0.00 87 1017.5
20260830172837 20 235 0.0 0.0 0.00 0.00 0.00 88 1017.8
20260830171936 19 236 0.0 0.0 0.00 0.00 0.00 89 1018.1
20260830171348 19 236 0.0 0.0 0.00 0.00 0.00 89 1018.0
20260830164332 18 236 0.0 0.0 0.00 0.00 0.00 91 1018.4
20260830162833 18 236 0.0 0.0 0.00 0.00 0.00 92 1018.5
20260830161332 18 236 0.0 0.0 0.00 0.00 0.00 92 1018.6
20260830155830 18 236 0.0 0.0 0.00 0.00 0.00 92 1018.8
20260830154330 18 236 0.0 0.0 0.00 0.00 0.00 91 1019.1
20260830152825 18 236 0.0 0.0 0.00 0.00 0.00 90 1018.2
20260830151327 18 236 0.0 0.0 0.00 0.00 0.00 90 1018.6
20260830150536 18 236 0.0 0.0 0.00 0.00 0.00 90 1019.0